Time,TemperatureF,DewpointF,PressureIn,WindDirection,WindDirectionDegrees,WindSpeedMPH,WindSpeedGustMPH,Humidity,HourlyPrecipIn,Conditions,Clouds,dailyrainin,SoftwareType,DateUTC
2013-02-03 00:05:00,36.4,28.6,30.18,East,101,3.0,3.0,73,0.00,,,0.01,Wunderground v.1.15,2013-02-03 06:05:00,
2013-02-03 00:10:00,36.2,28.4,30.18,ENE,74,2.0,2.0,73,0.00,,,0.01,Wunderground v.1.15,2013-02-03 06:10:00,
2013-02-03 00:15:00,36.0,28.2,30.19,ENE,70,2.0,3.0,73,0.00,,,0.01,Wunderground v.1.15,2013-02-03 06:15:00,
2013-02-03 00:20:00,35.9,28.4,30.19,SW,222,3.0,3.0,74,0.00,,,0.01,Wunderground v.1.15,2013-02-03 06:20:00,
2013-02-03 00:25:00,35.7,28.2,30.19,ENE,73,3.0,4.0,74,0.00,,,0.01,Wunderground v.1.15,2013-02-03 06:25:00,
2013-02-03 00:30:00,35.4,28.3,30.19,East,89,2.0,3.0,75,0.00,,,0.00,Wunderground v.1.15,2013-02-03 06:30:00,
2013-02-03 00:40:00,34.8,28.3,30.20,WSW,245,2.0,2.0,77,0.00,,,0.00,Wunderground v.1.15,2013-02-03 06:40:00,
2013-02-03 00:45:00,34.2,28.4,30.20,SE,134,2.0,2.0,79,0.00,,,0.00,Wunderground v.1.15,2013-02-03 06:45:00,
2013-02-03 00:50:00,33.6,27.8,30.20,East,100,2.0,2.0,79,0.00,,,0.00,Wunderground v.1.15,2013-02-03 06:50:00,
2013-02-03 00:55:00,33.3,27.8,30.20,NW,323,1.0,2.0,80,0.00,,,0.00,Wunderground v.1.15,2013-02-03 06:55:00,
2013-02-03 01:00:00,33.1,27.6,30.19,East,84,1.0,3.0,80,0.00,,,0.00,Wunderground v.1.15,2013-02-03 07:00:00,
2013-02-03 01:05:00,32.8,27.3,30.20,WNW,287,1.0,3.0,80,0.00,,,0.00,Wunderground v.1.15,2013-02-03 07:05:00,
2013-02-03 01:10:00,32.6,27.4,30.20,WSW,250,1.0,2.0,81,0.00,,,0.00,Wunderground v.1.15,2013-02-03 07:10:00,
2013-02-03 01:20:00,32.2,27.0,30.21,SE,131,1.0,2.0,81,0.00,,,0.00,Wunderground v.1.15,2013-02-03 07:20:00,
2013-02-03 01:25:00,32.2,27.0,30.21,SE,139,2.0,2.0,81,0.00,,,0.00,Wunderground v.1.15,2013-02-03 07:25:00,
2013-02-03 01:30:00,32.1,26.9,30.22,East,94,2.0,2.0,81,0.00,,,0.00,Wunderground v.1.15,2013-02-03 07:30:00,
2013-02-03 01:35:00,31.8,26.6,30.22,ESE,118,1.0,2.0,81,0.00,,,0.00,Wunderground v.1.15,2013-02-03 07:35:00,
2013-02-03 01:40:00,31.7,26.5,30.22,East,98,2.0,2.0,81,0.00,,,0.00,Wunderground v.1.15,2013-02-03 07:40:00,
2013-02-03 01:45:00,31.7,26.5,30.22,SSE,162,2.0,3.0,81,0.00,,,0.00,Wunderground v.1.15,2013-02-03 07:45:00,
2013-02-03 01:50:00,31.7,25.9,30.22,SW,221,3.0,3.0,79,0.00,,,0.00,Wunderground v.1.15,2013-02-03 07:50:00,
2013-02-03 02:00:00,31.7,23.7,30.23,West,279,4.0,4.0,72,0.00,,,0.00,Wunderground v.1.15,2013-02-03 08:00:00,
2013-02-03 02:05:00,31.6,22.9,30.24,SW,232,4.0,4.0,70,0.00,,,0.00,Wunderground v.1.15,2013-02-03 08:05:00,
2013-02-03 02:10:00,31.4,22.4,30.24,SSW,197,3.0,3.0,69,0.00,,,0.00,Wunderground v.1.15,2013-02-03 08:10:00,
2013-02-03 02:15:00,31.3,22.3,30.24,NNE,16,3.0,6.0,69,0.00,,,0.00,Wunderground v.1.15,2013-02-03 08:15:00,
2013-02-03 02:20:00,31.1,21.8,30.23,SE,134,4.0,4.0,68,0.00,,,0.00,Wunderground v.1.15,2013-02-03 08:20:00,
2013-02-03 02:25:00,31.0,21.7,30.23,SSE,165,4.0,4.0,68,0.00,,,0.00,Wunderground v.1.15,2013-02-03 08:25:00,
2013-02-03 02:35:00,30.6,21.6,30.24,SE,124,3.0,3.0,69,0.00,,,0.00,Wunderground v.1.15,2013-02-03 08:35:00,
2013-02-03 02:40:00,30.3,21.7,30.24,ESE,115,2.0,2.0,70,0.00,,,0.00,Wunderground v.1.15,2013-02-03 08:40:00,
2013-02-03 02:45:00,30.2,21.2,30.23,East,81,3.0,5.0,69,0.00,,,0.00,Wunderground v.1.15,2013-02-03 08:45:00,
2013-02-03 02:50:00,30.1,21.2,30.23,North,358,3.0,3.0,69,0.00,,,0.00,Wunderground v.1.15,2013-02-03 08:50:00,
2013-02-03 02:55:00,29.9,21.0,30.23,South,186,3.0,3.0,69,0.00,,,0.00,Wunderground v.1.15,2013-02-03 08:55:00,
2013-02-03 03:00:00,29.8,20.9,30.23,WSW,242,3.0,4.0,69,0.00,,,0.00,Wunderground v.1.15,2013-02-03 09:00:00,
2013-02-03 03:05:00,29.6,20.7,30.24,SSW,197,3.0,4.0,69,0.00,,,0.00,Wunderground v.1.15,2013-02-03 09:05:00,
2013-02-03 03:15:00,29.2,20.3,30.24,ENE,76,2.0,4.0,69,0.00,,,0.00,Wunderground v.1.15,2013-02-03 09:15:00,
2013-02-03 03:20:00,29.1,20.5,30.24,SSE,167,2.0,2.0,70,0.00,,,0.00,Wunderground v.1.15,2013-02-03 09:20:00,
2013-02-03 03:25:00,28.9,20.7,30.23,North,1,2.0,2.0,71,0.00,,,0.00,Wunderground v.1.15,2013-02-03 09:25:00,
2013-02-03 03:30:00,28.7,20.5,30.23,East,98,2.0,2.0,71,0.00,,,0.00,Wunderground v.1.15,2013-02-03 09:30:00,
2013-02-03 03:35:00,28.6,20.4,30.23,NE,49,2.0,4.0,71,0.00,,,0.00,Wunderground v.1.15,2013-02-03 09:35:00,
2013-02-03 03:40:00,28.6,20.4,30.23,ESE,110,2.0,2.0,71,0.00,,,0.00,Wunderground v.1.15,2013-02-03 09:40:00,
2013-02-03 03:50:00,28.2,20.0,30.23,ESE,115,2.0,2.0,71,0.00,,,0.00,Wunderground v.1.15,2013-02-03 09:50:00,
2013-02-03 03:55:00,28.0,20.1,30.23,West,266,2.0,2.0,72,0.00,,,0.00,Wunderground v.1.15,2013-02-03 09:55:00,
2013-02-03 04:00:00,27.9,20.0,30.24,NNW,347,2.0,2.0,72,0.00,,,0.00,Wunderground v.1.15,2013-02-03 10:00:00,
2013-02-03 04:05:00,27.8,19.9,30.23,East,101,2.0,4.0,72,0.00,,,0.00,Wunderground v.1.15,2013-02-03 10:05:00,
2013-02-03 04:10:00,27.6,19.8,30.24,WNW,293,2.0,2.0,72,0.00,,,0.00,Wunderground v.1.15,2013-02-03 10:10:00,
2013-02-03 04:15:00,27.4,19.6,30.24,SSE,152,2.0,2.0,72,0.00,,,0.00,Wunderground v.1.15,2013-02-03 10:15:00,
2013-02-03 04:20:00,27.3,19.8,30.23,SSW,199,2.0,2.0,73,0.00,,,0.00,Wunderground v.1.15,2013-02-03 10:20:00,
2013-02-03 04:30:00,27.1,19.3,30.24,North,11,2.0,3.0,72,0.00,,,0.00,Wunderground v.1.15,2013-02-03 10:30:00,
2013-02-03 04:35:00,27.0,19.2,30.24,West,269,2.0,3.0,72,0.00,,,0.00,Wunderground v.1.15,2013-02-03 10:35:00,
2013-02-03 04:40:00,26.9,19.1,30.24,ESE,123,2.0,2.0,72,0.00,,,0.00,Wunderground v.1.15,2013-02-03 10:40:00,
2013-02-03 04:45:00,26.7,18.9,30.24,WSW,252,2.0,2.0,72,0.00,,,0.00,Wunderground v.1.15,2013-02-03 10:45:00,
2013-02-03 04:50:00,26.7,18.9,30.24,ESE,110,2.0,2.0,72,0.00,,,0.00,Wunderground v.1.15,2013-02-03 10:50:00,
2013-02-03 04:55:00,26.7,18.6,30.25,East,81,2.0,2.0,71,0.00,,,0.00,Wunderground v.1.15,2013-02-03 10:55:00,
2013-02-03 05:00:00,26.6,18.5,30.25,ESE,112,2.0,3.0,71,0.00,,,0.00,Wunderground v.1.15,2013-02-03 11:00:00,
2013-02-03 05:05:00,26.4,18.6,30.25,SSW,203,2.0,3.0,72,0.00,,,0.00,Wunderground v.1.15,2013-02-03 11:05:00,
2013-02-03 05:15:00,26.0,18.8,30.25,SE,131,1.0,2.0,74,0.00,,,0.00,Wunderground v.1.15,2013-02-03 11:15:00,
2013-02-03 05:20:00,25.8,19.0,30.25,East,85,0.0,2.0,75,0.00,,,0.00,Wunderground v.1.15,2013-02-03 11:20:00,
2013-02-03 05:25:00,25.7,18.9,30.25,East,82,1.0,2.0,75,0.00,,,0.00,Wunderground v.1.15,2013-02-03 11:25:00,
2013-02-03 05:30:00,25.5,18.4,30.25,South,180,1.0,1.0,74,0.00,,,0.00,Wunderground v.1.15,2013-02-03 11:30:00,
2013-02-03 05:40:00,25.4,17.9,30.25,East,101,1.0,2.0,73,0.00,,,0.00,Wunderground v.1.15,2013-02-03 11:40:00,
2013-02-03 05:50:00,25.1,17.7,30.24,East,95,1.0,2.0,73,0.00,,,0.00,Wunderground v.1.15,2013-02-03 11:50:00,
2013-02-03 05:55:00,24.9,17.8,30.24,West,262,1.0,2.0,74,0.00,,,0.00,Wunderground v.1.15,2013-02-03 11:55:00,
2013-02-03 06:00:00,24.7,17.6,30.24,SE,124,0.0,2.0,74,0.00,,,0.00,Wunderground v.1.15,2013-02-03 12:00:00,
2013-02-03 06:05:00,24.5,17.4,30.24,East,98,0.0,2.0,74,0.00,,,0.00,Wunderground v.1.15,2013-02-03 12:05:00,
2013-02-03 06:10:00,24.3,17.5,30.24,ESE,108,0.0,2.0,75,0.00,,,0.00,Wunderground v.1.15,2013-02-03 12:10:00,
2013-02-03 06:15:00,24.1,17.3,30.23,ESE,107,0.0,2.0,75,0.00,,,0.00,Wunderground v.1.15,2013-02-03 12:15:00,
2013-02-03 06:25:00,23.5,17.0,30.24,ESE,108,0.0,2.0,76,0.00,,,0.00,Wunderground v.1.15,2013-02-03 12:25:00,
2013-02-03 06:30:00,23.2,16.8,30.24,SE,127,0.0,2.0,76,0.00,,,0.00,Wunderground v.1.15,2013-02-03 12:30:00,
2013-02-03 06:35:00,22.9,16.8,30.24,SE,127,0.0,2.0,77,0.00,,,0.00,Wunderground v.1.15,2013-02-03 12:35:00,
2013-02-03 06:40:00,22.6,16.8,30.24,SE,127,0.0,2.0,78,0.00,,,0.00,Wunderground v.1.15,2013-02-03 12:40:00,
2013-02-03 06:45:00,22.3,16.5,30.24,SE,127,0.0,2.0,78,0.00,,,0.00,Wunderground v.1.15,2013-02-03 12:45:00,
2013-02-03 06:50:00,22.1,16.6,30.24,SE,127,0.0,2.0,79,0.00,,,0.00,Wunderground v.1.15,2013-02-03 12:50:00,
2013-02-03 06:55:00,22.2,17.0,30.25,SE,127,0.0,2.0,80,0.00,,,0.00,Wunderground v.1.15,2013-02-03 12:55:00,
2013-02-03 07:00:00,22.2,17.0,30.25,SE,127,0.0,2.0,80,0.00,,,0.00,Wunderground v.1.15,2013-02-03 13:00:00,
2013-02-03 07:10:00,21.9,16.7,30.25,WSW,239,0.0,2.0,80,0.00,,,0.00,Wunderground v.1.15,2013-02-03 13:10:00,
2013-02-03 07:15:00,21.9,17.0,30.25,West,270,0.0,2.0,81,0.00,,,0.00,Wunderground v.1.15,2013-02-03 13:15:00,
2013-02-03 07:20:00,21.9,17.0,30.25,West,274,0.0,2.0,81,0.00,,,0.00,Wunderground v.1.15,2013-02-03 13:20:00,
2013-02-03 07:30:00,21.8,16.9,30.26,West,274,0.0,2.0,81,0.00,,,0.00,Wunderground v.1.15,2013-02-03 13:30:00,
2013-02-03 07:35:00,21.9,17.0,30.25,West,274,0.0,2.0,81,0.00,,,0.00,Wunderground v.1.15,2013-02-03 13:35:00,
2013-02-03 07:40:00,21.7,16.8,30.26,West,274,0.0,2.0,81,0.00,,,0.00,Wunderground v.1.15,2013-02-03 13:40:00,
2013-02-03 07:45:00,21.6,17.0,30.25,West,276,0.0,2.0,82,0.00,,,0.00,Wunderground v.1.15,2013-02-03 13:45:00,
2013-02-03 07:55:00,21.6,17.0,30.26,West,274,0.0,2.0,82,0.00,,,0.00,Wunderground v.1.15,2013-02-03 13:55:00,
2013-02-03 08:00:00,21.5,16.9,30.25,West,274,0.0,2.0,82,0.00,,,0.00,Wunderground v.1.15,2013-02-03 14:00:00,
2013-02-03 08:05:00,21.4,16.8,30.25,West,274,0.0,2.0,82,0.00,,,0.00,Wunderground v.1.15,2013-02-03 14:05:00,
2013-02-03 08:10:00,21.5,16.9,30.25,West,274,0.0,2.0,82,0.00,,,0.00,Wunderground v.1.15,2013-02-03 14:10:00,
2013-02-03 08:15:00,21.6,17.0,30.25,West,274,0.0,2.0,82,0.00,,,0.00,Wunderground v.1.15,2013-02-03 14:15:00,
2013-02-03 08:20:00,22.0,17.3,30.25,West,274,0.0,2.0,82,0.00,,,0.00,Wunderground v.1.15,2013-02-03 14:20:00,
2013-02-03 08:30:00,23.0,17.7,30.25,West,274,0.0,2.0,80,0.00,,,0.00,Wunderground v.1.15,2013-02-03 14:30:00,
2013-02-03 08:35:00,23.4,17.8,30.25,West,274,0.0,2.0,79,0.00,,,0.00,Wunderground v.1.15,2013-02-03 14:35:00,
2013-02-03 08:40:00,23.6,17.7,30.25,West,274,0.0,2.0,78,0.00,,,0.00,Wunderground v.1.15,2013-02-03 14:40:00,
2013-02-03 08:45:00,24.2,18.0,30.25,West,274,0.0,2.0,77,0.00,,,0.00,Wunderground v.1.15,2013-02-03 14:45:00,
2013-02-03 08:50:00,25.0,18.5,30.25,West,274,0.0,2.0,76,0.00,,,0.00,Wunderground v.1.15,2013-02-03 14:50:00,
2013-02-03 08:55:00,25.6,18.5,30.24,West,274,0.0,2.0,74,0.00,,,0.00,Wunderground v.1.15,2013-02-03 14:55:00,
2013-02-03 09:00:00,25.9,18.4,30.24,West,278,0.0,0.0,73,0.00,,,0.00,Wunderground v.1.15,2013-02-03 15:00:00,
2013-02-03 09:10:00,26.6,19.1,30.23,SE,127,0.0,0.0,73,0.00,,,0.00,Wunderground v.1.15,2013-02-03 15:10:00,
2013-02-03 09:15:00,27.1,19.3,30.23,SSE,155,0.0,1.0,72,0.00,,,0.00,Wunderground v.1.15,2013-02-03 15:15:00,
2013-02-03 09:20:00,27.6,20.1,30.23,WNW,283,1.0,1.0,73,0.00,,,0.00,Wunderground v.1.15,2013-02-03 15:20:00,
2013-02-03 09:25:00,28.1,20.2,30.22,ESE,121,1.0,1.0,72,0.00,,,0.00,Wunderground v.1.15,2013-02-03 15:25:00,
2013-02-03 09:30:00,28.8,20.9,30.22,West,259,1.0,1.0,72,0.00,,,0.00,Wunderground v.1.15,2013-02-03 15:30:00,
2013-02-03 09:35:00,29.2,21.3,30.22,SE,141,1.0,1.0,72,0.00,,,0.00,Wunderground v.1.15,2013-02-03 15:35:00,
2013-02-03 09:45:00,30.8,21.8,30.22,ENE,65,1.0,1.0,69,0.00,,,0.00,Wunderground v.1.15,2013-02-03 15:45:00,
2013-02-03 09:50:00,31.3,22.0,30.21,SE,129,1.0,1.0,68,0.00,,,0.00,Wunderground v.1.15,2013-02-03 15:50:00,
2013-02-03 09:55:00,31.6,22.2,30.21,West,262,1.0,1.0,68,0.00,,,0.00,Wunderground v.1.15,2013-02-03 15:55:00,
2013-02-03 10:00:00,32.1,22.7,30.20,SE,135,1.0,1.0,68,0.00,,,0.00,Wunderground v.1.15,2013-02-03 16:00:00,
2013-02-03 10:05:00,32.7,22.9,30.20,WNW,288,1.0,1.0,67,0.00,,,0.00,Wunderground v.1.15,2013-02-03 16:05:00,
2013-02-03 10:10:00,32.7,22.9,30.20,East,96,1.0,1.0,67,0.00,,,0.00,Wunderground v.1.15,2013-02-03 16:10:00,
2013-02-03 10:20:00,33.5,23.4,30.20,SSE,159,1.0,1.0,66,0.00,,,0.00,Wunderground v.1.15,2013-02-03 16:20:00,
2013-02-03 10:30:00,33.8,24.0,30.19,SSE,148,2.0,2.0,67,0.00,,,0.00,Wunderground v.1.15,2013-02-03 16:30:00,
2013-02-03 10:35:00,34.0,24.5,30.18,SE,143,2.0,2.0,68,0.00,,,0.00,Wunderground v.1.15,2013-02-03 16:35:00,
2013-02-03 10:40:00,34.1,25.0,30.18,NW,311,2.0,3.0,69,0.00,,,0.00,Wunderground v.1.15,2013-02-03 16:40:00,
2013-02-03 10:45:00,34.5,25.7,30.18,East,96,2.0,3.0,70,0.00,,,0.00,Wunderground v.1.15,2013-02-03 16:45:00,
2013-02-03 10:50:00,34.6,25.5,30.18,SSE,162,2.0,2.0,69,0.00,,,0.00,Wunderground v.1.15,2013-02-03 16:50:00,
2013-02-03 10:55:00,34.4,25.6,30.18,SE,134,3.0,3.0,70,0.00,,,0.00,Wunderground v.1.15,2013-02-03 16:55:00,
2013-02-03 11:00:00,34.7,25.9,30.17,West,269,3.0,3.0,70,0.00,,,0.00,Wunderground v.1.15,2013-02-03 17:00:00,
2013-02-03 11:10:00,35.2,26.0,30.17,ESE,103,3.0,3.0,69,0.00,,,0.00,Wunderground v.1.15,2013-02-03 17:10:00,
2013-02-03 11:15:00,35.4,25.9,30.17,SW,229,3.0,3.0,68,0.00,,,0.00,Wunderground v.1.15,2013-02-03 17:15:00,
2013-02-03 11:20:00,35.8,26.6,30.17,SSE,163,3.0,4.0,69,0.00,,,0.00,Wunderground v.1.15,2013-02-03 17:20:00,
2013-02-03 11:30:00,36.8,26.5,30.16,SSE,149,2.0,6.0,66,0.00,,,0.00,Wunderground v.1.15,2013-02-03 17:30:00,
2013-02-03 11:35:00,36.7,26.0,30.16,WNW,299,3.0,6.0,65,0.00,,,0.00,Wunderground v.1.15,2013-02-03 17:35:00,
2013-02-03 11:40:00,36.9,25.9,30.15,East,87,3.0,4.0,64,0.00,,,0.00,Wunderground v.1.15,2013-02-03 17:40:00,
2013-02-03 11:50:00,37.3,25.8,30.14,SE,145,3.0,3.0,63,0.00,,,0.00,Wunderground v.1.15,2013-02-03 17:50:00,
2013-02-03 11:55:00,37.6,26.1,30.14,ESE,122,3.0,3.0,63,0.00,,,0.00,Wunderground v.1.15,2013-02-03 17:55:00,
2013-02-03 12:00:00,38.0,24.5,30.14,SSW,203,3.0,3.0,58,0.00,,,0.00,Wunderground v.1.15,2013-02-03 18:00:00,
2013-02-03 12:05:00,38.0,24.5,30.13,SE,143,3.0,3.0,58,0.00,,,0.00,Wunderground v.1.15,2013-02-03 18:05:00,
2013-02-03 12:10:00,38.3,24.8,30.13,ESE,105,3.0,7.0,58,0.00,,,0.00,Wunderground v.1.15,2013-02-03 18:10:00,
2013-02-03 12:15:00,38.7,24.8,30.13,West,280,3.0,7.0,57,0.00,,,0.00,Wunderground v.1.15,2013-02-03 18:15:00,
2013-02-03 12:25:00,38.9,25.8,30.12,NW,326,3.0,6.0,59,0.00,,,0.00,Wunderground v.1.15,2013-02-03 18:25:00,
2013-02-03 12:30:00,39.1,24.7,30.11,SE,143,3.0,3.0,56,0.00,,,0.00,Wunderground v.1.15,2013-02-03 18:30:00,
2013-02-03 12:35:00,39.2,23.9,30.11,SSE,160,4.0,4.0,54,0.00,,,0.00,Wunderground v.1.15,2013-02-03 18:35:00,
2013-02-03 12:40:00,39.1,24.3,30.11,SE,138,4.0,6.0,55,0.00,,,0.00,Wunderground v.1.15,2013-02-03 18:40:00,
2013-02-03 12:45:00,39.3,24.5,30.10,SW,215,4.0,6.0,55,0.00,,,0.00,Wunderground v.1.15,2013-02-03 18:45:00,
2013-02-03 12:50:00,39.6,24.7,30.10,East,87,3.0,4.0,55,0.00,,,0.00,Wunderground v.1.15,2013-02-03 18:50:00,
2013-02-03 12:55:00,39.7,24.8,30.09,SSW,203,3.0,5.0,55,0.00,,,0.00,Wunderground v.1.15,2013-02-03 18:55:00,
2013-02-03 13:05:00,39.9,25.5,30.09,SSW,203,4.0,4.0,56,0.00,,,0.00,Wunderground v.1.15,2013-02-03 19:05:00,
2013-02-03 13:10:00,39.9,25.5,30.09,SW,218,4.0,5.0,56,0.00,,,0.00,Wunderground v.1.15,2013-02-03 19:10:00,
2013-02-03 13:15:00,40.0,25.6,30.08,SE,127,5.0,5.0,56,0.00,,,0.00,Wunderground v.1.15,2013-02-03 19:15:00,
2013-02-03 13:20:00,40.0,25.1,30.08,SSW,200,5.0,5.0,55,0.00,,,0.00,Wunderground v.1.15,2013-02-03 19:20:00,
2013-02-03 13:25:00,40.1,25.6,30.08,South,180,5.0,5.0,56,0.00,,,0.00,Wunderground v.1.15,2013-02-03 19:25:00,
2013-02-03 13:30:00,40.5,25.6,30.08,ESE,118,4.0,7.0,55,0.00,,,0.00,Wunderground v.1.15,2013-02-03 19:30:00,
2013-02-03 13:40:00,40.7,25.3,30.08,SE,129,5.0,5.0,54,0.00,,,0.00,Wunderground v.1.15,2013-02-03 19:40:00,
2013-02-03 13:50:00,40.9,26.0,30.06,East,101,4.0,5.0,55,0.00,,,0.00,Wunderground v.1.15,2013-02-03 19:50:00,
2013-02-03 13:55:00,41.3,26.8,30.06,WSW,246,3.0,5.0,56,0.00,,,0.00,Wunderground v.1.15,2013-02-03 19:55:00,
2013-02-03 14:00:00,41.5,26.1,30.05,West,260,4.0,5.0,54,0.00,,,0.00,Wunderground v.1.15,2013-02-03 20:00:00,
2013-02-03 14:05:00,41.6,26.6,30.05,SE,143,4.0,6.0,55,0.00,,,0.00,Wunderground v.1.15,2013-02-03 20:05:00,
2013-02-03 14:10:00,41.6,26.2,30.05,WNW,283,4.0,4.0,54,0.00,,,0.00,Wunderground v.1.15,2013-02-03 20:10:00,
2013-02-03 14:15:00,41.5,26.1,30.04,SE,131,4.0,4.0,54,0.00,,,0.00,Wunderground v.1.15,2013-02-03 20:15:00,
2013-02-03 14:20:00,41.5,27.0,30.04,ESE,121,5.0,7.0,56,0.00,,,0.00,Wunderground v.1.15,2013-02-03 20:20:00,
2013-02-03 14:30:00,41.7,26.7,30.03,SSE,149,4.0,4.0,55,0.00,,,0.00,Wunderground v.1.15,2013-02-03 20:30:00,
2013-02-03 14:35:00,41.9,26.9,30.03,SSE,152,4.0,7.0,55,0.00,,,0.00,Wunderground v.1.15,2013-02-03 20:35:00,
2013-02-03 14:40:00,41.9,26.9,30.02,SE,145,5.0,5.0,55,0.00,,,0.00,Wunderground v.1.15,2013-02-03 20:40:00,
2013-02-03 14:45:00,42.1,26.6,30.02,ESE,121,5.0,5.0,54,0.00,,,0.00,Wunderground v.1.15,2013-02-03 20:45:00,
2013-02-03 14:50:00,42.3,27.3,30.02,South,183,4.0,4.0,55,0.00,,,0.00,Wunderground v.1.15,2013-02-03 20:50:00,
2013-02-03 14:55:00,42.4,27.8,30.01,East,101,4.0,7.0,56,0.00,,,0.00,Wunderground v.1.15,2013-02-03 20:55:00,
2013-02-03 15:00:00,42.3,28.1,30.01,SE,136,4.0,4.0,57,0.00,,,0.00,Wunderground v.1.15,2013-02-03 21:00:00,
2013-02-03 15:05:00,42.4,28.2,30.01,SE,139,4.0,4.0,57,0.00,,,0.00,Wunderground v.1.15,2013-02-03 21:05:00,
2013-02-03 15:15:00,42.3,28.1,30.00,WSW,248,4.0,4.0,57,0.00,,,0.00,Wunderground v.1.15,2013-02-03 21:15:00,
2013-02-03 15:20:00,42.4,28.2,30.00,SE,141,4.0,4.0,57,0.00,,,0.00,Wunderground v.1.15,2013-02-03 21:20:00,
2013-02-03 15:25:00,42.5,28.8,30.00,ENE,65,4.0,4.0,58,0.00,,,0.00,Wunderground v.1.15,2013-02-03 21:25:00,
2013-02-03 15:30:00,42.5,28.3,29.99,South,185,4.0,5.0,57,0.00,,,0.00,Wunderground v.1.15,2013-02-03 21:30:00,
2013-02-03 15:35:00,42.7,28.9,29.99,SE,126,4.0,6.0,58,0.00,,,0.00,Wunderground v.1.15,2013-02-03 21:35:00,
2013-02-03 15:40:00,42.9,28.7,29.98,SE,143,4.0,4.0,57,0.00,,,0.00,Wunderground v.1.15,2013-02-03 21:40:00,
2013-02-03 15:45:00,42.9,28.7,29.98,SW,236,4.0,4.0,57,0.00,,,0.00,Wunderground v.1.15,2013-02-03 21:45:00,
2013-02-03 15:50:00,43.0,28.8,29.98,South,173,4.0,4.0,57,0.00,,,0.00,Wunderground v.1.15,2013-02-03 21:50:00,
2013-02-03 16:00:00,42.9,28.7,29.97,SE,142,4.0,7.0,57,0.00,,,0.00,Wunderground v.1.15,2013-02-03 22:00:00,
2013-02-03 16:10:00,42.6,28.8,29.96,ESE,119,4.0,4.0,58,0.00,,,0.00,Wunderground v.1.15,2013-02-03 22:10:00,
2013-02-03 16:15:00,42.4,29.1,29.96,SSE,155,4.0,4.0,59,0.00,,,0.00,Wunderground v.1.15,2013-02-03 22:15:00,
2013-02-03 16:20:00,42.4,29.1,29.96,SE,124,4.0,4.0,59,0.00,,,0.00,Wunderground v.1.15,2013-02-03 22:20:00,
2013-02-03 16:25:00,42.4,29.5,29.96,ESE,123,3.0,4.0,60,0.00,,,0.00,Wunderground v.1.15,2013-02-03 22:25:00,
2013-02-03 16:30:00,42.3,29.4,29.95,SE,128,3.0,3.0,60,0.00,,,0.00,Wunderground v.1.15,2013-02-03 22:30:00,
2013-02-03 16:40:00,42.1,29.2,29.94,NNW,332,3.0,3.0,60,0.00,,,0.00,Wunderground v.1.15,2013-02-03 22:40:00,
2013-02-03 16:50:00,41.9,29.0,29.94,South,177,3.0,3.0,60,0.00,,,0.00,Wunderground v.1.15,2013-02-03 22:50:00,
2013-02-03 16:55:00,41.8,28.9,29.93,SSE,158,3.0,3.0,60,0.00,,,0.00,Wunderground v.1.15,2013-02-03 22:55:00,
2013-02-03 17:00:00,41.6,28.7,29.93,ESE,114,3.0,5.0,60,0.00,,,0.00,Wunderground v.1.15,2013-02-03 23:00:00,
2013-02-03 17:05:00,41.4,28.9,29.93,SE,127,2.0,5.0,61,0.00,,,0.00,Wunderground v.1.15,2013-02-03 23:05:00,
2013-02-03 17:10:00,41.2,29.2,29.93,ESE,113,2.0,2.0,62,0.00,,,0.00,Wunderground v.1.15,2013-02-03 23:10:00,
2013-02-03 17:15:00,40.9,29.3,29.92,SE,146,2.0,2.0,63,0.00,,,0.00,Wunderground v.1.15,2013-02-03 23:15:00,
2013-02-03 17:20:00,40.7,29.5,29.92,SE,128,2.0,6.0,64,0.00,,,0.00,Wunderground v.1.15,2013-02-03 23:20:00,
2013-02-03 17:25:00,40.4,29.6,29.92,ESE,108,3.0,6.0,65,0.00,,,0.00,Wunderground v.1.15,2013-02-03 23:25:00,
2013-02-03 17:30:00,40.2,29.4,29.92,SE,124,3.0,3.0,65,0.00,,,0.00,Wunderground v.1.15,2013-02-03 23:30:00,
2013-02-03 17:40:00,40.0,29.6,29.92,ESE,105,2.0,2.0,66,0.00,,,0.00,Wunderground v.1.15,2013-02-03 23:40:00,
2013-02-03 17:45:00,39.9,29.5,29.92,SSE,153,2.0,4.0,66,0.00,,,0.00,Wunderground v.1.15,2013-02-03 23:45:00,
2013-02-03 17:50:00,39.8,29.4,29.92,SE,146,2.0,2.0,66,0.00,,,0.00,Wunderground v.1.15,2013-02-03 23:50:00,
2013-02-03 17:55:00,39.7,29.3,29.92,SE,139,2.0,2.0,66,0.00,,,0.00,Wunderground v.1.15,2013-02-03 23:55:00,
2013-02-03 18:00:00,39.4,29.3,29.92,SSE,150,1.0,1.0,67,0.00,,,0.00,Wunderground v.1.15,2013-02-04 00:00:00,
2013-02-03 18:05:00,39.2,29.2,29.92,ESE,117,2.0,2.0,67,0.00,,,0.00,Wunderground v.1.15,2013-02-04 00:05:00,
2013-02-03 18:10:00,39.0,29.3,29.92,SE,142,2.0,2.0,68,0.00,,,0.00,Wunderground v.1.15,2013-02-04 00:10:00,
2013-02-03 18:20:00,38.8,29.5,29.92,SE,127,2.0,2.0,69,0.00,,,0.00,Wunderground v.1.15,2013-02-04 00:20:00,
2013-02-03 18:30:00,38.5,29.2,29.91,SE,129,2.0,3.0,69,0.00,,,0.00,Wunderground v.1.15,2013-02-04 00:30:00,
2013-02-03 18:35:00,38.4,29.5,29.91,SE,136,2.0,3.0,70,0.00,,,0.00,Wunderground v.1.15,2013-02-04 00:35:00,
2013-02-03 18:40:00,38.3,29.4,29.91,ESE,115,2.0,2.0,70,0.00,,,0.00,Wunderground v.1.15,2013-02-04 00:40:00,
2013-02-03 18:45:00,38.1,29.5,29.91,SSE,156,2.0,2.0,71,0.00,,,0.00,Wunderground v.1.15,2013-02-04 00:45:00,
2013-02-03 18:50:00,38.0,29.4,29.91,East,95,1.0,1.0,71,0.00,,,0.00,Wunderground v.1.15,2013-02-04 00:50:00,
2013-02-03 18:55:00,37.9,29.3,29.91,SE,128,1.0,1.0,71,0.00,,,0.00,Wunderground v.1.15,2013-02-04 00:55:00,
2013-02-03 19:00:00,37.9,29.7,29.92,ESE,115,1.0,3.0,72,0.00,,,0.00,Wunderground v.1.15,2013-02-04 01:00:00,
2013-02-03 19:10:00,37.9,29.7,29.92,ESE,103,1.0,1.0,72,0.00,,,0.00,Wunderground v.1.15,2013-02-04 01:10:00,
2013-02-03 19:15:00,38.0,29.8,29.92,SE,125,1.0,1.0,72,0.00,,,0.00,Wunderground v.1.15,2013-02-04 01:15:00,
2013-02-03 19:20:00,38.0,29.8,29.92,SE,133,1.0,1.0,72,0.00,,,0.00,Wunderground v.1.15,2013-02-04 01:20:00,
2013-02-03 19:25:00,38.0,29.8,29.91,SE,142,1.0,1.0,72,0.00,,,0.00,Wunderground v.1.15,2013-02-04 01:25:00,
2013-02-03 19:30:00,37.9,29.7,29.91,ESE,119,1.0,1.0,72,0.00,,,0.00,Wunderground v.1.15,2013-02-04 01:30:00,
2013-02-03 19:35:00,37.9,29.7,29.91,SE,127,1.0,1.0,72,0.00,,,0.00,Wunderground v.1.15,2013-02-04 01:35:00,
2013-02-03 19:40:00,37.9,30.0,29.91,SE,131,1.0,1.0,73,0.00,,,0.00,Wunderground v.1.15,2013-02-04 01:40:00,
2013-02-03 19:50:00,37.6,29.7,29.90,SE,131,1.0,1.0,73,0.00,,,0.00,Wunderground v.1.15,2013-02-04 01:50:00,
2013-02-03 19:55:00,37.5,30.0,29.90,ESE,119,0.0,1.0,74,0.00,,,0.00,Wunderground v.1.15,2013-02-04 01:55:00,
2013-02-03 20:00:00,37.5,30.0,29.89,ESE,108,0.0,1.0,74,0.00,,,0.00,Wunderground v.1.15,2013-02-04 02:00:00,
2013-02-03 20:05:00,37.5,30.0,29.89,SE,138,1.0,1.0,74,0.00,,,0.00,Wunderground v.1.15,2013-02-04 02:05:00,
2013-02-03 20:10:00,37.4,29.9,29.89,ESE,121,1.0,1.0,74,0.00,,,0.00,Wunderground v.1.15,2013-02-04 02:10:00,
2013-02-03 20:15:00,37.5,30.0,29.89,ESE,105,1.0,1.0,74,0.00,,,0.00,Wunderground v.1.15,2013-02-04 02:15:00,
2013-02-03 20:20:00,37.4,30.2,29.89,SE,134,1.0,1.0,75,0.00,,,0.00,Wunderground v.1.15,2013-02-04 02:20:00,
2013-02-03 20:30:00,37.3,30.1,29.88,ESE,116,1.0,1.0,75,0.00,,,0.00,Wunderground v.1.15,2013-02-04 02:30:00,
2013-02-03 20:35:00,37.4,30.2,29.88,ESE,121,1.0,1.0,75,0.00,,,0.00,Wunderground v.1.15,2013-02-04 02:35:00,
2013-02-03 20:45:00,37.4,30.2,29.88,SE,125,0.0,1.0,75,0.00,,,0.00,Wunderground v.1.15,2013-02-04 02:45:00,
2013-02-03 20:50:00,37.3,30.1,29.88,SE,125,0.0,1.0,75,0.00,,,0.00,Wunderground v.1.15,2013-02-04 02:50:00,
2013-02-03 20:55:00,37.2,30.3,29.87,East,98,0.0,3.0,76,0.00,,,0.00,Wunderground v.1.15,2013-02-04 02:55:00,
2013-02-03 21:00:00,37.3,30.1,29.87,ESE,105,1.0,1.0,75,0.00,,,0.00,Wunderground v.1.15,2013-02-04 03:00:00,
2013-02-03 21:10:00,37.3,30.1,29.86,SSE,153,1.0,1.0,75,0.00,,,0.00,Wunderground v.1.15,2013-02-04 03:10:00,
2013-02-03 21:15:00,37.3,30.4,29.86,ESE,119,1.0,1.0,76,0.00,,,0.00,Wunderground v.1.15,2013-02-04 03:15:00,
2013-02-03 21:20:00,37.3,30.1,29.86,ESE,114,1.0,1.0,75,0.00,,,0.00,Wunderground v.1.15,2013-02-04 03:20:00,
2013-02-03 21:25:00,37.2,30.3,29.86,ESE,118,1.0,1.0,76,0.00,,,0.00,Wunderground v.1.15,2013-02-04 03:25:00,
2013-02-03 21:30:00,37.3,30.1,29.86,SE,136,1.0,1.0,75,0.00,,,0.00,Wunderground v.1.15,2013-02-04 03:30:00,
2013-02-03 21:35:00,37.3,30.1,29.85,ESE,104,1.0,2.0,75,0.00,,,0.00,Wunderground v.1.15,2013-02-04 03:35:00,
2013-02-03 21:40:00,37.2,30.3,29.86,SE,133,1.0,2.0,76,0.00,,,0.00,Wunderground v.1.15,2013-02-04 03:40:00,
2013-02-03 21:50:00,37.1,30.2,29.86,SE,133,1.0,1.0,76,0.00,,,0.00,Wunderground v.1.15,2013-02-04 03:50:00,
2013-02-03 21:55:00,37.0,30.1,29.85,SE,133,1.0,1.0,76,0.00,,,0.00,Wunderground v.1.15,2013-02-04 03:55:00,
2013-02-03 22:00:00,36.9,30.4,29.85,ESE,123,0.0,1.0,77,0.00,,,0.00,Wunderground v.1.15,2013-02-04 04:00:00,
2013-02-03 22:05:00,36.8,30.3,29.85,ESE,110,0.0,1.0,77,0.00,,,0.00,Wunderground v.1.15,2013-02-04 04:05:00,
2013-02-03 22:15:00,36.8,30.3,29.84,SE,133,1.0,1.0,77,0.00,,,0.00,Wunderground v.1.15,2013-02-04 04:15:00,
2013-02-03 22:20:00,36.7,30.2,29.84,ESE,110,0.0,1.0,77,0.00,,,0.00,Wunderground v.1.15,2013-02-04 04:20:00,
2013-02-03 22:25:00,36.8,30.3,29.84,ESE,105,1.0,1.0,77,0.00,,,0.00,Wunderground v.1.15,2013-02-04 04:25:00,
2013-02-03 22:30:00,36.9,30.4,29.84,SE,136,1.0,1.0,77,0.00,,,0.00,Wunderground v.1.15,2013-02-04 04:30:00,
2013-02-03 22:35:00,37.1,30.2,29.84,ESE,117,1.0,2.0,76,0.00,,,0.00,Wunderground v.1.15,2013-02-04 04:35:00,
2013-02-03 22:40:00,37.3,30.4,29.83,SE,124,1.0,1.0,76,0.00,,,0.00,Wunderground v.1.15,2013-02-04 04:40:00,
2013-02-03 22:50:00,37.7,30.5,29.82,ENE,62,2.0,2.0,75,0.00,,,0.00,Wunderground v.1.15,2013-02-04 04:50:00,
2013-02-03 22:55:00,37.9,30.4,29.83,SE,139,1.0,2.0,74,0.00,,,0.00,Wunderground v.1.15,2013-02-04 04:55:00,
2013-02-03 23:05:00,38.3,30.4,29.82,SE,136,0.0,1.0,73,0.00,,,0.00,Wunderground v.1.15,2013-02-04 05:05:00,
2013-02-03 23:10:00,38.4,30.5,29.82,ESE,110,0.0,1.0,73,0.00,,,0.00,Wunderground v.1.15,2013-02-04 05:10:00,
2013-02-03 23:15:00,38.4,30.5,29.82,SE,129,0.0,1.0,73,0.00,,,0.00,Wunderground v.1.15,2013-02-04 05:15:00,
2013-02-03 23:20:00,38.4,30.5,29.82,SE,130,0.0,1.0,73,0.00,,,0.00,Wunderground v.1.15,2013-02-04 05:20:00,
2013-02-03 23:25:00,38.4,30.5,29.82,NNW,340,0.0,1.0,73,0.00,,,0.00,Wunderground v.1.15,2013-02-04 05:25:00,
2013-02-03 23:30:00,38.4,30.5,29.82,West,264,0.0,1.0,73,0.00,,,0.00,Wunderground v.1.15,2013-02-04 05:30:00,
2013-02-03 23:35:00,38.5,30.6,29.82,NNW,334,0.0,1.0,73,0.00,,,0.00,Wunderground v.1.15,2013-02-04 05:35:00,
2013-02-03 23:40:00,38.5,30.6,29.82,WSW,253,0.0,1.0,73,0.00,,,0.00,Wunderground v.1.15,2013-02-04 05:40:00,
2013-02-03 23:45:00,38.4,30.5,29.82,WNW,285,0.0,1.0,73,0.00,,,0.00,Wunderground v.1.15,2013-02-04 05:45:00,
2013-02-03 23:55:00,38.3,30.4,29.81,West,278,0.0,1.0,73,0.00,,,0.00,Wunderground v.1.15,2013-02-04 05:55:00,